星链-3760 (STARLINK-3760 )

导读

STARLINK-3760是美国SpaceX公司星链(Starlink)互联网星座的组网卫星,于2022年4月21日发射升空。它运行在近地轨道,属于星链规模组网的组成部分,承担全球宽带互联网覆盖任务,为基础设施匮乏区域提供低时延高速网络,也服务移动终端接入需求,支撑星链星座持续扩容,推动全球卫星互联网服务落地。

基本信息
目录编号:
52298
目录名称:
STARLINK-3760
国际标识:
2022-041AP
轨道中心:
EARTH
卫星名称:
星链-3760
卫星全名:
星链-3760 (STARLINK-3760 )
卫星状态:
在轨 (已飞行1597 天)
发射日期:
2022-04-21 UTC
国别 :
美国 (US)
星等 :
--
轨道信息
数据来源 国际轨道数据 AOE轨道数据
星历时间 2026-09-04T01:50:47+0800
10小时前
查看轨道信息
2026-09-03T07:00:00+0800
1天前
查看轨道信息
半长轴 6840.869km 6840.794km
偏心率 0.0001205 0.0000892
轨道倾角 53.162° 53.163°
近地点辐角 84.954° 66.566°
升交点赤经 9.700° 13.371°
平近点角 275.160° 273.546°
近地点 461.907km 462.046km
远地点 463.557km 463.268km
周期 93.848分钟 93.847分钟
每日圈数 15.343904 15.344156
详细信息
固有亮度:
5
最大亮度:
2.5
卫星平台:
Starlink v1.5
覆盖范围:
全球
运营商:
太空探索技术公司
运营商所在国:
美国
制造商(研发单位):
太空探索技术公司
制造商所在国:
美国
使用方式:
暂无
卫星简介
星链(Starlink)计划是由太空探索技术公司(SpaceX)提出的一个巨型低轨卫星互联网星座项目,计划在2019年至2024年间在太空搭建由约1.2万颗卫星组成的“星链”网络,其中1584颗将部署在地球上空550千米处的近地轨道,并从2020年开始工作。该卫星仍在工作。
2D轨道图
3D轨道图
轨道高度分析图
轨道倾角分析图
轨道综合分析图
查看轨道综合分析图
交会数据列表
事件ID 空间交会对象 最接近时刻(TCA) 交会距离 交会风险概率(CRP) 交会风险指数(CRI) 操作
CDM_260903-221705-229805-235321
2026-09-03T
22:17:45+0000
2.622 km
极远距离
1.22978E-6 低风险 0.37
CDM_260829-185204-942405-229822
2026-08-29T
18:52:31+0000
2.888 km
极远距离
1.191018E-6 低风险 0.37
CDM_260903-204905-229805-360821
2026-09-03T
20:49:34+0000
2.999 km
极远距离
1.152133E-6 低风险 0.36
CDM_260904-222705-229805-926621
2026-09-04T
22:27:50+0000
2.815 km
极远距离
9.093775E-7 极低风险 0.34
CDM_260904-220604-299205-229822
2026-09-04T
22:06:49+0000
2.971 km
极远距离
8.404384E-7 极低风险 0.33